Location: Newark
(30.0333°N, 31.2167°E)
Time: 15:23:56
(UTC+00:00)

Tiros 1 despin weight - Pass Details

Date: 20 January 2020
Orbit: 594 x 642 km, 48.2° (Epoch: 27 February)

Event Time Altitude Azimuth Distance (km) Brightness Sun altitude
Rises 15:08:00 0° 324° (NW) 2,925 ? 1.8°
Reaches altitude 10° 15:12:24 10° 3° (N) 2,024 ? 0.9°
Maximum altitude 15:13:27 11° 16° (NNE) 1,982 ? 0.7°
Drops below altitude 10° 15:14:31 10° 29° (NNE) 2,027 ? 0.5°
Enters shadow 15:18:46 - 67° (ENE) 2,890 ? -0.3°
Sets 15:18:56 0° 68° (ENE) 2,939 - -0.4°
